Location: Miles
(41.4492°N, 81.6087°W)
Time: 06:51:23
(UTC+00:00)

Transit 2A - Pass Details

Date: 14 September 2024
Orbit: 590 x 960 km, 66.7° (Epoch: 09 October)

Event Time Altitude Azimuth Distance (km) Brightness Sun altitude
Rises 07:06:02 0° 337° (NNW) 3,649 9.9 -39.5°
Reaches altitude 10° 07:09:48 10° 359° (N) 2,684 9.3 -39.1°
Maximum altitude 07:13:31 16° 35° (NE) 2,244 9.0 -38.7°
Drops below altitude 10° 07:17:08 10° 72° (ENE) 2,595 9.3 -38.2°
Sets 07:20:40 0° 93° (E) 3,469 9.8 -37.8°
